Dewpoint
77 77 76 76 75 75 71 69 53 56 56 53 55 57 55 61 62 61 59 62 60 63 64 65 66 65 62 62 62 64 63 59 58 55 53 64 70 70 72 71 73 73 74 75 76 77 76 76 76 75 76 77 77 77 77 77 77 76 77 76 76 76 76 76 76 76 76 77 77 77 77 76 76 76 76 76 75 75 75 75 75 75 75 74 74 74 75 74 74 75 75 74 74 74 74 74 73
77 76 76 76 75 73 66 67 54 52 51 51 53 58 58 60 61 60 59 61 62 63 66 65 66 67 66 66 64 65 62 63 67 66 68 69 70 72 72 73 72 72 74 75 76 77 76 76 77 76 77 77 77 76 77 77 77 75 77 77 76 76 76 76 76 76 76 76 77 77 76 76 76 76 76 75 75 75 75 75 75 74 75 75 75 75 75 75 75 75 74 74 74 74 74 74 74
77 76 75 75 74 71 68 62 51 48 48 48 52 56 61 59 60 61 62 62 63 66 67 66 66 65 65 66 63 62 60 67 67 67 68 70 69 71 72 72 72 73 75 75 76 77 76 76 76 76 77 77 77 77 76 77 76 75 77 76 77 76 76 76 76 76 76 76 77 77 77 76 76 76 76 76 75 75 75 75 75 75 75 75 75 75 75 75 75 75 75 75 74 74 74 74 74
76 76 73 73 67 67 57 55 51 49 48 49 49 56 59 59 61 61 63 65 66 67 67 64 64 67 65 62 64 66 64 65 68 67 67 68 69 73 72 72 74 74 75 75 76 77 76 77 76 77 77 77 77 77 76 76 76 76 77 76 77 76 76 76 76 76 76 76 77 77 77 76 76 77 76 76 76 75 75 75 75 75 75 75 75 74 75 75 75 75 74 74 75 74 74 74 73
75 75 73 70 64 59 56 53 52 48 49 51 49 54 60 60 60 62 64 66 67 67 66 65 65 67 67 65 66 62 63 67 69 69 68 71 73 73 73 74 74 74 75 76 76 76 76 77 76 77 77 77 77 77 77 77 77 77 77 77 76 76 76 76 76 76 76 76 76 77 77 77 77 77 77 76 76 75 75 75 75 75 75 75 74 75 74 74 74 74 75 73 74 75 74 74 74
72 74 75 72 63 62 57 53 53 52 52 54 52 54 60 61 61 63 64 66 66 66 67 66 64 64 65 65 68 65 67 64 69 69 69 72 73 73 74 74 74 74 75 76 76 77 76 77 76 76 77 77 78 77 77 77 77 77 76 77 76 76 76 76 76 76 76 76 76 76 76 77 76 76 76 77 77 76 76 75 75 75 75 75 75 75 74 74 75 74 75 74 74 73 74 74 74
70 72 71 69 63 62 53 51 53 53 55 57 55 57 60 61 62 63 63 63 65 65 66 64 65 64 62 66 67 68 69 69 70 69 72 72 73 74 74 74 74 75 76 76 77 77 76 76 77 77 77 76 78 77 78 78 77 77 75 77 76 76 76 76 76 76 76 76 76 76 76 76 77 76 76 77 76 76 76 76 75 76 75 75 75 75 74 74 74 74 74 74 74 74 74 74 74
73 68 68 58 55 57 54 53 54 54 56 60 60 61 61 62 63 62 61 60 61 62 63 65 65 63 63 68 62 68 70 72 71 72 72 73 73 74 74 74 75 75 76 76 77 77 77 76 76 77 77 77 77 78 78 78 77 77 77 77 76 76 76 76 76 76 76 76 76 76 76 76 76 76 76 76 77 76 76 76 76 76 76 76 75 75 75 75 74 75 74 74 74 74 75 74 74
71 69 67 57 55 55 54 55 56 58 58 61 62 63 64 63 64 62 60 63 62 64 64 65 65 59 61 63 64 68 71 73 74 74 73 73 73 74 74 74 74 75 76 76 76 76 76 75 76 77 78 76 78 78 78 78 77 77 77 77 77 77 76 76 76 76 76 76 76 76 76 76 76 76 76 76 76 76 76 76 76 76 75 75 75 75 75 75 74 75 75 75 75 74 74 74 74
68 65 59 56 55 53 53 53 54 56 59 61 61 62 63 64 63 62 62 61 62 63 64 65 64 62 64 62 64 67 69 72 75 73 73 73 73 73 73 74 74 75 75 76 76 76 76 77 77 77 77 77 78 78 78 78 77 77 77 77 77 77 77 77 76 76 76 76 76 76 76 76 76 76 76 76 76 76 76 76 76 76 75 75 75 75 75 75 74 75 75 75 75 75 74 74 74
61 64 63 53 50 49 50 53 57 58 59 62 62 64 65 64 63 63 63 62 64 62 64 65 62 62 63 63 63 70 71 73 73 72 73 73 72 72 73 74 75 75 75 75 76 76 77 77 77 77 77 77 78 78 78 78 78 77 77 77 77 77 77 77 76 76 76 76 76 76 76 76 76 76 76 76 76 76 76 75 75 75 75 75 75 75 75 75 75 75 75 75 75 75 75 75 74
60 60 57 51 50 49 53 54 53 57 59 59 60 64 66 64 63 62 61 60 62 62 62 65 61 65 63 64 64 69 71 72 73 74 74 74 72 72 72 73 74 75 75 75 76 76 77 77 77 77 77 77 78 78 78 78 78 78 77 77 77 77 77 77 77 77 76 76 77 76 76 76 76 76 76 76 76 76 76 76 75 75 75 75 75 75 75 75 75 75 75 75 75 75 75 75 74
62 60 54 52 51 54 55 53 53 58 54 56 60 63 66 63 62 62 62 63 63 61 62 65 67 65 61 63 66 69 70 72 74 75 74 73 73 71 72 73 74 74 75 76 76 76 76 76 76 77 77 77 78 78 78 78 78 78 77 77 77 77 77 77 77 77 76 76 76 76 76 76 76 76 76 76 76 76 75 75 75 75 75 75 75 75 75 75 75 75 75 75 75 75 75 75 74
62 61 53 50 53 54 52 52 52 51 51 56 61 64 65 63 64 64 63 62 63 61 65 67 66 66 63 64 64 67 70 72 74 74 74 74 75 72 72 73 74 74 75 75 76 76 76 76 76 76 76 76 76 77 77 78 78 78 78 77 77 77 77 77 77 77 76 76 76 76 76 76 76 76 76 76 76 76 76 76 76 75 75 75 75 75 75 75 75 75 75 75 75 75 75 75 74
62 60 53 50 47 51 51 49 51 50 50 57 60 63 63 65 65 65 63 62 63 67 66 68 66 63 60 62 61 65 69 72 73 74 74 74 75 75 74 74 73 74 74 75 76 76 76 76 76 76 77 76 76 76 76 77 78 78 78 78 77 77 77 77 76 76 76 76 76 76 76 76 76 76 75 75 75 76 76 76 75 75 75 76 76 76 75 74 74 75 75 75 75 74 75 75 75
64 55 51 47 46 50 50 53 54 51 50 59 60 64 62 63 66 64 64 65 64 67 67 63 69 64 65 63 65 67 70 71 72 72 73 73 73 75 76 76 76 74 74 75 75 76 76 76 76 76 76 76 76 76 76 76 77 77 78 78 77 77 77 77 76 76 76 76 75 75 75 76 75 75 75 75 75 76 75 75 75 75 75 75 75 75 75 75 75 75 74 74 74 74 75 74 74
63 58 55 48 45 49 48 52 51 48 53 59 62 63 60 61 63 64 66 66 63 63 66 66 66 69 66 67 68 69 70 71 70 69 71 71 71 73 73 73 74 75 74 74 75 75 76 76 76 76 76 76 76 76 76 76 77 77 77 77 76 76 77 76 77 76 76 75 75 75 75 75 75 75 75 75 75 76 75 75 75 76 75 75 76 75 75 75 74 74 73 72 73 73 73 73 74
60 54 50 46 46 47 51 52 52 54 57 58 61 62 61 60 62 63 65 63 64 64 64 67 67 67 69 69 68 70 70 68 68 68 68 69 70 71 72 72 73 72 72 74 74 75 75 75 76 76 76 76 76 76 76 76 77 77 76 76 76 76 76 76 76 75 75 76 76 75 75 75 75 75 75 76 75 76 76 75 75 75 75 76 76 74 75 74 74 74 74 73 73 74 73 72 73
57 51 48 45 48 48 53 54 55 56 55 59 61 63 62 61 62 64 61 60 62 61 63 64 64 66 67 68 68 68 69 68 68 68 68 67 68 70 71 72 71 73 72 72 74 74 75 75 75 76 76 76 76 76 76 76 76 76 76 76 76 77 77 76 76 76 76 76 76 75 76 75 75 75 75 75 76 76 76 76 76 76 76 75 74 75 75 74 74 75 74 74 74 73 72 72 73
55 48 46 49 49 52 55 57 56 59 58 59 60 63 62 62 63 63 61 60 61 60 61 62 62 63 65 67 68 67 67 67 68 68 67 67 67 68 69 70 71 71 71 71 72 74 75 75 75 75 75 76 76 76 76 76 76 75 75 75 75 76 76 76 76 76 76 76 75 75 75 75 76 75 77 77 77 76 76 76 75 75 75 75 75 75 74 74 74 74 74 74 73 72 71 72 73
52 49 48 50 51 53 54 58 60 60 59 60 61 62 61 61 62 62 61 57 57 59 63 62 62 64 65 67 67 68 67 67 67 67 66 66 68 70 70 70 70 71 72 73 74 73 73 74 74 74 73 73 74 75 76 76 75 75 75 75 75 75 75 75 76 76 76 75 75 76 75 75 75 75 75 75 76 76 75 75 75 74 74 73 74 74 73 73 74 73 72 72 71 71 72 71 71
49 49 49 49 51 52 55 59 61 61 62 61 61 60 60 62 61 61 57 55 54 59 63 66 64 65 66 66 68 70 70 67 67 67 67 69 69 69 70 70 71 72 73 71 71 72 73 75 74 74 73 73 74 74 73 75 74 75 75 75 75 75 75 75 75 76 76 76 76 75 75 74 73 73 73 74 75 75 75 75 75 74 73 73 73 74 74 73 72 72 72 72 72 71 71 71 71
46 48 49 50 50 52 55 60 60 61 60 60 60 60 59 59 58 60 60 60 63 68 68 67 67 67 67 68 69 70 68 67 67 67 68 68 68 69 70 71 70 70 70 71 72 72 73 73 74 74 73 74 74 74 74 73 73 74 74 74 75 75 75 75 75 76 76 76 76 75 74 74 73 73 73 75 75 75 74 74 74 73 72 72 73 73 73 73 72 72 71 71 72 72 72 71 72
46 47 48 50 52 53 56 60 60 60 59 60 61 59 56 56 54 58 62 66 67 69 70 70 70 70 69 68 69 69 67 66 66 68 67 68 69 68 69 69 70 69 68 69 70 72 72 72 73 73 73 74 73 74 74 73 73 73 74 75 74 74 74 74 75 75 75 75 76 75 75 73 73 73 72 73 74 72 73 72 72 72 72 72 72 73 72 73 73 72 72 72 72 72 71 71 72
45 46 48 51 53 56 59 59 59 60 60 60 58 56 58 57 55 57 61 66 68 68 69 69 69 68 68 68 69 69 68 66 67 69 68 69 69 69 69 69 69 68 68 69 71 71 72 72 72 72 72 73 74 74 74 74 74 74 74 75 74 74 74 73 74 75 74 74 74 74 74 72 72 71 71 71 71 70 70 70 70 70 71 71 71 71 71 72 72 71 72 72 72 72 72 72 72
46 47 51 52 54 57 57 57 59 60 60 59 58 58 59 60 58 56 62 67 67 68 68 67 67 67 67 68 68 69 69 67 68 69 67 68 69 69 68 69 71 69 69 70 71 70 70 72 72 71 72 73 73 74 74 74 74 74 75 74 74 75 74 74 74 74 74 74 74 73 73 72 72 71 71 71 71 70 70 70 71 71 71 71 71 70 71 71 71 72 72 71 71 71 71 71 71
49 50 51 52 53 56 57 56 58 59 60 59 56 57 57 60 55 52 63 66 67 66 66 66 66 67 67 68 68 70 70 70 69 70 69 68 67 68 69 71 72 70 72 71 72 72 73 72 71 72 72 73 73 72 72 72 73 73 74 75 74 74 74 74 73 73 74 74 73 72 72 72 72 72 72 71 71 71 71 71 71 72 72 71 71 71 71 71 71 71 72 71 71 71 71 71 72
50 50 51 53 54 55 56 57 57 58 57 59 57 57 58 58 56 54 63 65 65 65 64 65 65 65 67 68 68 68 68 69 69 69 68 67 67 70 71 71 72 72 71 71 71 72 73 72 72 72 72 73 73 72 72 72 73 72 73 73 73 73 73 72 72 72 72 71 71 71 71 72 72 72 71 71 71 71 71 71 72 72 72 72 72 71 71 71 71 72 71 71 71 71 71 72 71
50 49 48 51 52 54 56 56 58 57 56 60 58 52 52 54 53 58 64 65 64 64 64 64 64 65 66 66 67 67 68 69 69 69 69 69 69 70 70 72 73 72 73 72 73 74 73 72 71 71 71 71 73 72 72 72 72 72 73 72 72 73 73 73 72 72 71 71 71 71 71 72 72 71 71 71 71 71 71 71 71 71 71 72 72 72 71 72 72 71 71 71 71 71 71 71 72
48 48 49 48 49 50 54 57 57 56 56 61 54 39 46 52 56 61 64 63 62 62 63 64 63 64 64 66 66 66 67 68 68 69 70 71 71 72 71 73 73 72 72 73 73 73 73 74 73 72 72 72 71 72 72 72 72 72 73 73 73 73 73 73 72 71 71 71 71 70 71 71 71 71 71 71 71 71 70 70 71 70 70 71 71 71 71 71 70 70 70 71 71 71 71 71 71
45 48 47 48 46 46 52 54 55 54 58 59 52 42 45 51 56 62 63 63 61 62 63 64 62 63 63 64 65 66 67 68 69 70 70 70 71 72 72 72 71 72 74 72 72 72 73 74 74 72 72 71 72 72 72 72 72 72 72 73 73 73 73 73 72 71 72 71 71 71 71 71 72 71 71 72 72 71 70 70 70 71 71 71 71 71 71 71 71 70 71 70 70 70 71 71 70
45 42 43 44 44 47 50 56 55 52 56 58 49 43 46 52 55 61 63 63 62 61 63 63 62 62 63 64 65 66 67 68 69 71 71 71 71 70 71 71 72 73 73 73 73 72 73 74 74 73 73 72 73 73 72 72 72 72 72 73 73 72 72 72 71 71 71 73 73 72 71 71 71 71 71 72 71 70 70 70 70 71 71 71 71 71 70 70 70 70 71 71 70 70 70 70 71
39 44 43 44 44 47 49 50 55 57 57 56 50 43 51 51 55 61 63 63 61 61 62 62 62 63 64 64 65 66 66 66 67 68 69 71 70 70 71 72 73 73 73 72 72 72 72 74 73 73 73 73 72 72 72 71 72 71 71 71 72 72 72 71 71 71 72 71 72 73 73 72 72 71 71 71 71 71 72 71 71 71 72 72 72 71 71 70 70 70 70 71 70 70 70 69 70
40 36 41 44 44 45 46 48 52 55 56 54 54 51 51 53 56 61 63 63 61 60 61 62 62 63 64 64 66 65 65 65 65 66 68 70 70 71 72 73 72 73 73 72 72 72 72 73 74 73 73 73 72 71 72 71 71 72 72 72 73 73 72 72 72 72 72 72 73 72 72 72 72 72 71 71 71 72 73 73 72 73 72 72 72 71 71 70 70 70 69 71 71 70 70 69 70
37 41 38 40 43 46 46 45 48 53 55 52 51 51 52 53 57 60 62 63 61 58 60 62 62 63 63 63 65 64 64 64 64 66 69 69 70 70 71 71 72 72 72 71 71 71 72 72 73 73 73 72 73 73 72 72 72 72 72 72 71 71 71 72 72 72 72 72 72 72 72 73 72 72 73 73 72 71 72 72 72 72 72 72 71 71 70 71 71 71 70 70 71 71 70 70 70
31 39 40 41 42 43 45 46 49 51 51 49 50 48 51 54 56 58 61 61 60 58 59 60 61 62 63 64 64 63 63 63 65 68 69 68 70 70 71 71 71 71 71 71 71 71 70 70 71 72 72 72 72 72 73 73 72 72 72 72 71 71 71 72 73 72 72 72 72 72 72 72 72 72 72 72 72 72 72 72 72 71 72 72 71 70 70 70 70 69 69 69 69 70 71 70 71
26 38 39 40 41 42 44 45 50 52 49 48 50 52 53 53 54 57 59 59 58 56 58 59 59 60 61 63 63 62 63 64 67 69 68 68 69 69 70 70 70 70 70 70 70 70 70 70 70 70 71 72 71 70 72 72 72 72 72 71 71 70 71 72 71 71 72 72 72 72 72 73 72 72 72 72 72 72 72 72 71 71 72 72 71 70 70 70 70 70 70 70 69 68 70 72 72
20 30 38 38 41 42 43 46 51 53 48 48 52 52 52 53 54 55 56 57 57 55 56 57 57 58 62 63 62 62 63 67 69 68 68 67 67 68 69 69 71 69 69 70 69 70 70 70 70 70 71 71 71 71 72 73 73 72 71 70 70 70 70 70 70 71 71 72 72 72 72 72 72 71 72 72 73 73 72 72 72 72 72 71 71 71 70 71 71 70 70 69 69 69 68 70 72
30 26 35 37 40 41 45 50 51 52 50 48 50 50 52 53 56 58 56 55 57 56 56 57 57 60 61 62 62 64 66 68 68 68 68 66 67 67 68 68 68 68 69 69 69 69 69 70 70 71 71 71 71 74 73 73 72 71 70 70 70 70 71 72 72 72 71 71 72 72 72 71 71 71 71 71 72 72 72 71 71 71 71 71 70 70 70 70 71 70 69 68 68 69 70 70 71
33 35 34 33 39 39 40 46 51 52 48 49 51 50 51 53 54 56 58 59 58 60 59 59 61 60 61 62 63 64 67 67 67 67 66 66 67 67 68 68 68 68 68 68 69 69 69 70 70 71 71 72 73 74 75 74 73 72 71 71 71 71 70 72 70 70 71 71 71 71 72 72 71 71 71 71 71 71 70 70 70 70 70 70 70 69 70 70 70 70 70 69 69 68 70 70 70
20 33 30 33 37 37 43 45 49 51 51 52 50 49 48 50 53 53 55 58 58 59 60 61 62 63 65 66 67 67 67 67 66 66 65 65 66 67 68 68 68 68 68 68 69 69 70 70 70 71 71 72 73 74 73 73 71 69 69 69 70 70 70 69 69 69 70 71 70 70 71 72 72 71 71 71 71 71 71 70 70 70 70 70 70 69 69 69 70 70 70 69 68 68 68 70 70
10 16 30 35 37 42 46 47 45 46 46 48 44 40 42 48 52 54 55 55 56 58 59 61 62 64 65 65 66 67 67 66 66 65 65 65 66 67 68 68 68 68 68 69 69 70 70 70 70 69 69 70 70 71 72 71 70 69 68 66 66 66 66 66 67 68 69 69 69 70 70 71 72 71 71 71 71 72 71 71 70 70 70 70 70 70 70 70 70 70 70 69 68 69 69 69 69
14 15 19 33 41 46 45 43 42 42 42 46 45 38 38 45 49 52 54 55 56 58 60 61 62 63 64 64 65 65 65 65 65 65 65 66 67 67 67 68 68 68 69 70 70 70 69 69 69 69 69 69 69 69 69 68 67 67 67 67 66 66 65 66 67 69 69 70 69 69 69 70 70 71 71 71 71 71 72 71 71 71 71 70 71 71 70 70 70 71 71 70 70 69 68 67 67
15 16 38 42 44 44 43 42 40 42 49 44 47 45 42 42 47 53 55 54 55 56 59 61 62 63 64 64 65 64 64 65 65 65 66 67 67 67 67 68 68 69 69 70 70 69 69 69 69 69 69 69 68 68 68 69 66 66 65 66 67 66 66 66 67 68 68 70 68 68 68 68 69 70 70 70 70 70 72 71 71 71 71 71 72 71 71 71 71 71 71 71 70 70 69 68 68
16 20 41 42 43 43 43 40 41 44 43 42 44 46 41 43 46 54 54 52 53 54 57 60 61 63 63 64 65 65 66 66 66 66 66 66 67 67 68 67 68 68 69 69 69 69 69 69 69 68 67 67 67 68 67 67 69 66 65 65 64 66 67 67 67 67 67 67 66 67 67 67 68 69 69 69 69 69 71 71 71 71 71 71 72 71 72 71 71 71 71 70 70 70 70 69 69
18 18 29 36 35 36 38 41 42 40 41 40 42 45 38 41 44 51 53 52 52 54 56 60 61 62 63 63 65 66 66 66 66 66 66 66 67 67 68 67 67 68 68 69 69 68 68 67 67 66 66 66 66 66 65 66 66 66 65 64 64 64 65 65 65 65 66 66 65 65 66 66 67 67 68 68 68 68 69 70 70 70 70 71 72 72 72 72 71 71 71 71 71 70 70 70 70
15 18 27 27 27 29 36 37 38 35 32 36 38 43 41 37 43 51 51 51 52 54 57 59 61 62 62 64 65 65 65 65 65 65 66 66 67 67 67 67 67 68 68 68 68 68 67 66 66 65 66 66 65 65 65 65 65 65 65 65 64 64 64 65 65 65 65 65 65 65 65 66 66 66 67 67 68 68 68 69 69 68 69 70 70 70 71 71 71 71 71 71 71 71 70 70 70
14 13 20 22 25 29 27 32 38 30 30 36 39 43 41 35 39 48 52 56 58 55 56 60 61 62 62 63 64 65 65 65 65 65 65 66 66 66 66 66 67 68 68 67 67 66 65 64 64 64 65 65 65 65 65 65 65 65 65 65 65 65 64 65 65 64 65 65 65 65 65 65 65 66 66 66 66 67 68 67 68 67 67 67 68 69 70 70 71 71 71 71 71 71 71 71 71
18 25 24 13 18 24 20 30 28 32 31 39 44 43 41 41 42 49 56 57 58 59 57 59 61 61 61 63 64 65 65 65 64 64 65 65 65 65 66 66 67 67 67 66 65 65 64 63 63 63 63 65 65 65 65 65 65 65 65 65 65 66 65 65 65 64 65 65 65 65 65 65 65 65 65 65 66 66 67 67 67 67 66 67 68 68 69 69 70 71 71 71 71 71 71 70 70
13 14 18 15 12 14 15 23 30 33 36 38 46 45 39 42 45 53 57 58 59 60 60 59 62 61 61 63 64 64 64 64 64 64 65 65 65 66 66 66 66 67 66 66 66 65 64 63 63 63 63 64 65 65 64 64 64 64 65 65 65 66 65 65 66 65 65 65 65 65 65 65 65 65 65 66 66 66 66 66 67 67 67 67 68 68 68 68 69 70 70 71 71 71 71 71 71
13 14 11 13 16 11 13 23 28 32 36 39 44 38 37 41 43 56 58 59 60 61 61 61 61 62 63 64 64 64 64 64 64 64 65 65 65 66 66 65 65 66 65 64 64 63 63 63 63 63 63 64 64 64 64 64 64 64 64 64 65 66 66 65 66 67 65 65 65 65 65 65 65 65 66 67 67 66 66 66 67 66 66 67 67 67 67 67 68 68 69 70 70 71 71 72 71
15 13 10 10 10 24 14 18 33 37 37 37 42 41 45 46 52 58 59 59 60 61 61 62 62 62 63 63 63 63 64 64 65 65 65 66 66 66 65 65 64 64 64 64 64 64 63 63 63 63 63 63 64 64 64 64 64 64 64 64 64 66 66 65 66 66 65 65 65 65 65 65 65 65 66 66 66 66 66 66 67 66 66 66 67 67 67 67 67 67 68 68 68 69 69 70 70
17 9 12 10 19 40 38 43 39 41 36 36 43 45 47 50 50 57 58 58 59 60 61 61 61 62 62 62 63 63 64 64 64 65 65 65 66 66 65 64 64 65 64 64 65 64 63 62 62 62 63 63 63 64 64 64 64 63 63 64 64 64 64 64 64 64 65 65 65 65 64 65 65 65 66 66 66 66 66 67 66 66 66 66 66 66 66 67 67 67 67 68 68 68 69 69 68
7 10 11 25 36 40 36 32 34 37 30 32 45 44 44 42 41 53 56 56 57 59 60 60 61 61 62 62 63 63 64 64 65 65 65 66 66 66 64 64 64 64 64 64 65 64 63 62 62 62 63 63 63 64 64 64 64 63 63 63 63 63 63 63 64 64 64 64 64 65 64 64 65 65 65 65 65 65 66 66 66 65 66 66 66 66 66 66 67 67 67 68 68 68 68 67 67
11 9 22 17 23 23 31 33 30 29 30 36 41 45 46 45 44 52 54 55 56 57 58 59 60 61 61 62 63 63 64 64 64 65 65 65 64 62 63 63 64 64 64 65 64 64 63 63 64 63 63 63 63 64 64 64 64 63 63 63 63 63 63 63 63 64 63 63 63 64 64 64 64 65 65 64 64 64 65 65 66 65 65 65 65 65 66 66 66 66 67 67 67 67 67 66 67
15 16 13 22 24 28 28 27 34 32 35 35 35 41 40 47 48 52 54 55 56 57 58 59 60 61 62 62 63 63 63 63 64 64 64 62 63 63 64 64 64 64 63 64 65 65 64 63 63 63 64 63 63 63 63 63 63 63 62 62 62 63 64 63 63 63 62 62 62 63 63 64 64 64 64 64 64 64 65 65 65 65 64 64 64 64 65 65 66 66 66 66 66 66 66 65 65
10 11 14 28 30 24 29 35 35 36 38 35 34 33 39 44 50 55 56 56 56 57 57 59 60 61 62 62 62 62 62 63 63 62 63 63 63 63 63 63 63 63 64 63 63 63 62 63 62 62 63 63 63 62 62 62 62 62 62 61 61 62 62 63 62 62 62 62 62 63 63 64 64 63 64 64 64 64 65 65 64 64 64 63 63 63 63 63 64 64 65 65 66 65 65 65 65
9 9 12 30 29 30 28 29 37 42 38 35 34 33 39 44 59 57 57 57 57 57 58 59 60 61 62 62 61 61 62 62 62 64 64 64 63 63 64 64 65 64 64 64 64 63 63 63 63 63 63 63 62 61 61 61 61 61 61 61 61 61 61 62 62 61 61 61 61 62 63 63 62 63 64 63 63 64 64 64 64 63 62 62 62 62 61 62 62 63 62 63 64 64 64 64 64